Weather History for Palmdale, CA

Change the Weather History Date:

Thursday, April 26, 2012

  Actual Average Record
Temperature  
Mean Temperature 61 °F 61 °F  
Max Temperature 67 °F 76 °F 98 °F (1996)
Min Temperature 54 °F 46 °F 31 °F (1974)
Degree Days  
Heating Degree Days 4 5  
Month to date heating degree days 188 210  
Since 1 July heating degree days 2797 2831  
Cooling Degree Days 0 1  
Month to date cooling degree days 47 11  
Year to date cooling degree days 47 13  
Growing Degree Days 10 (Base 50)    
Moisture  
Dew Point 46 °F    
Average Humidity 61    
Maximum Humidity 77    
Minimum Humidity 45    
Precipitation  
Precipitation T in 0.02 in 0.60 in (1931)
Month to date precipitation 0.62 0.43  
Year to date precipitation 1.79 4.94  
Since 1 July precipitation 3.72 7.92  
Snow  
Snow 0.00 in - 0.00 in (2001)
Month to date snowfall 0.0  
Since 1 July snowfall 0.0  
Snow Depth 0.00 in    
Sea Level Pressure  
Sea Level Pressure 29.91 in    
Wind  
Wind Speed 16 mph (WSW)    
Max Wind Speed 24 mph    
Max Gust Speed 33 mph    
Visibility 10 miles    
Events      
T = Trace of Precipitation, MM = Missing Value Source: NWS Daily Summary

Daily Weather History Graph

Daily Weather History Graph

Search for Another Location

Airport:

Trip Planner

Search our weather history database for the weather conditions in past years. The results will help you decide how hot, cold, wet, or windy it might be!

Date:

Astronomy

Apr. 26, 2012 Rise Set
Actual Time 6:06 AM PDT 7:33 PM PDT
Civil Twilight 5:40 AM PDT 8:00 PM PDT
Nautical Twilight 5:08 AM PDT 8:32 PM PDT
Astronomical Twilight 4:35 AM PDT 9:05 PM PDT
Moon 9:55 AM PDT (4/26) No Moon Set
Length of Visible Light 14h 20m
Length of Day
13h 26m
Waxing Crescent, 25% of the Moon is Illuminated
Apr 26
Waxing Crescent
Apr 29
First Quarter
May 5
Full
May 12
Last Quarter
May 20
New

Hourly Weather History & Observations

Time (PDT) Temp. Dew Point Humidity Pressure Visibility Wind Dir Wind Speed Gust Speed Precip Events Conditions
12:53 AM 57.0 °F 46.0 °F 67% 29.78 in 10.0 mi SW 18.4 mph - N/A   Scattered Clouds
1:53 AM 55.9 °F 46.0 °F 69% 29.80 in 10.0 mi South 13.8 mph 19.6 mph N/A   Scattered Clouds
2:53 AM 57.0 °F 43.0 °F 59% 29.77 in 10.0 mi West 6.9 mph - N/A   Overcast
3:53 AM 55.9 °F 46.9 °F 72% 29.78 in 10.0 mi WNW 6.9 mph - 0.00 in   Overcast
4:53 AM 55.0 °F 46.0 °F 72% 29.79 in 10.0 mi WSW 15.0 mph - N/A   Overcast
5:53 AM 54.0 °F 46.0 °F 75% 29.79 in 10.0 mi West 13.8 mph - N/A   Overcast
6:53 AM 55.0 °F 45.0 °F 69% 29.82 in 10.0 mi SW 16.1 mph - N/A   Clear
7:53 AM 55.9 °F 45.0 °F 67% 29.86 in 10.0 mi West 6.9 mph - N/A   Mostly Cloudy
8:53 AM 60.1 °F 46.0 °F 60% 29.85 in 10.0 mi SW 21.9 mph - N/A   Clear
9:53 AM 62.1 °F 46.0 °F 56% 29.88 in 10.0 mi SW 24.2 mph - N/A   Clear
10:53 AM 66.0 °F 45.0 °F 47% 29.89 in 10.0 mi North - - N/A   Unknown
11:53 AM 66.0 °F 46.0 °F 48% 29.90 in 10.0 mi SW 23.0 mph 31.1 mph N/A   Unknown
12:53 PM 66.9 °F 46.0 °F 47% 29.91 in 10.0 mi SW 23.0 mph 33.4 mph N/A   Mostly Cloudy
2:53 PM - - N/A% 30.00 in - North - - N/A   Unknown
3:53 PM - - N/A% 30.00 in - North - - N/A   Unknown
4:53 PM - - N/A% 30.01 in - North - - N/A   Unknown
5:53 PM - - N/A% 29.99 in - North - - N/A   Unknown
6:53 PM - - N/A% 30.00 in - North - - N/A   Unknown
7:53 PM - - N/A% 30.01 in - North - - N/A   Unknown
8:53 PM - - N/A% 30.02 in - North - - N/A   Unknown
9:53 PM - - N/A% 30.03 in - North - - N/A   Unknown
10:53 PM - - N/A% 30.04 in - North - - N/A   Unknown
11:53 PM - - N/A% 30.05 in - North - - N/A   Unknown